Flag for Germany Weather past 2 weeks in Detmold, North Rhine-Westphalia, Germany

Now
55 °F

Overcast.


Feels Like: 55 °F
Forecast: 48 / 59 °F
Wind: No wind

Location: Bad Lippspringe

Current Time: Oct 25, 2014 at 7:18:26 PM

Latest Report: Oct 25, 2014 at 6:00 PM


Visibility: 6 mi

Pressure: 30.13 "Hg

Humidity: 90%

Dew point: 53 °F

Location of DetmoldLocation

Historic Weather in Detmold — Graph

°F

Detmold temperature yesterday

Maximum temperature yesterday: 56 °F (at 3:00 PM)
Minimum temperature yesterday: 50 °F (at 4:00 AM)
Average temperature yesterday: 52 °F

Past Weeks' High & Low Weather Summary

 TemperatureHumidityPressure
High74 °F (Oct 19, 3:00 PM)99% (Oct 11, 8:00 AM)30.24 "Hg (Oct 11, 8:00 AM)
Low43 °F (Oct 22, 4:00 AM)54% (Oct 14, 3:00 PM)29.44 "Hg (Oct 21, 6:00 PM)
Average55 °F84%29.92 "Hg
* Reported Oct 10 6:00 PM — Oct 25 6:00 PM, Detmold, Weather by CustomWeather, © 2014

Note: Actual official high and low records may vary slightly from our data, if they occured in-between our weather recording intervals... More about our weather records

Advertising

Detmold weather history for previous 24 hours

 ConditionsComfort  
Time TempWeatherWind HumidityBarometerVisibility
6:00 PM
Oct 25
55 °FOvercast.No wind90%30.13 "Hg6 mi
5:00 PM56 °FLight freezing rain. Overcast.3 mph87%30.12 "Hg4 mi
4:00 PM56 °FOvercast.3 mph85%30.11 "Hg9 mi
3:00 PM55 °FOvercast.1 mph88%30.10 "Hg8 mi
2:00 PM54 °FLow clouds.2 mph91%30.11 "Hg6 mi
1:00 PM53 °FDrizzle. Overcast.3 mph91%30.11 "Hg5 mi
12:00 PM52 °FOvercast.1 mph92%30.10 "Hg4 mi
11:00 AM53 °FOvercast.2 mph83%30.09 "Hg6 mi
10:00 AM52 °FOvercast.1 mph83%30.08 "Hg6 mi
9:00 AM51 °FOvercast.2 mph86%30.07 "Hg5 mi
8:00 AM51 °FOvercast.3 mph85%30.06 "Hg4 mi
7:00 AM51 °FOvercast.1 mph83%30.05 "Hg5 mi
6:00 AM52 °FOvercast.2 mph80%30.05 "Hg5 mi
5:00 AM51 °FOvercast.2 mph79%30.05 "Hg6 mi
4:00 AM51 °FDrizzle. Overcast.3 mph82%30.05 "Hg6 mi
3:00 AM51 °FOvercast.3 mph80%30.06 "Hg6 mi
2:00 AM51 °FOvercast.3 mph78%30.08 "Hg7 mi
1:00 AM51 °FOvercast.2 mph77%30.08 "Hg7 mi
12:00 AM51 °FOvercast.3 mph77%30.08 "Hg8 mi
11:00 PM
Oct 24
52 °FOvercast.3 mph75%30.09 "Hg9 mi
10:00 PM52 °FOvercast.3 mph73%30.10 "Hg9 mi
9:00 PM51 °FOvercast.2 mph76%30.09 "Hg8 mi
8:00 PM52 °FLight rain. Overcast.3 mph75%30.10 "Hg6 mi
7:00 PM52 °FOvercast.2 mph74%30.10 "Hg9 mi
Weather by CustomWeather, © 2014

See weather overviewHow to use our weather pages